DW5321 Paradera AW current weather conditions

sailwx.info

Wind from 114 at 13 knots gusting 19

Air temperature 27.8° C
Dewpoint 23.6° C

Last reported at 2015-Mar-28 13:36 UTC.
Time now 2015-Mar-28 14:23 UTC

Location: N 12°33' W 070°00'.
View on Google Maps.

See reports from other nearby stations

  
Tides and Currents Weather Stations Pressure Air Temp Water Temp Dewpoint Dewpoint Depression Visibility Wind Speed Wind Dir Waves Ship Positions
date/time (UTC)wind fromknots sea level pressurealtimeterstation pressurevisibilityair tempwater tempwave heightnotes
2015-Mar-28 13:36 114 13 gusting 19 27.8
2015-Mar-28 13:21 075 9 gusting 15 27.2
2015-Mar-28 13:06 104 9 gusting 15 27.2
2015-Mar-28 12:51 121 6 gusting 17 27.2
2015-Mar-28 12:36 116 8 gusting 18 27.2
2015-Mar-28 12:21 114 13 gusting 18 27.2
2015-Mar-28 12:06 099 9 gusting 15 27.2
2015-Mar-28 11:51 091 6 gusting 13 26.7
2015-Mar-28 11:36 083 6 gusting 13 26.7
2015-Mar-28 11:21 150 6 gusting 14 26.1
2015-Mar-28 11:06 099 6 gusting 13 26.1
2015-Mar-28 10:51 047 7 gusting 13 26.1
2015-Mar-28 10:36 094 7 gusting 12 26.1
2015-Mar-28 10:21 125 6 gusting 13 25.6
2015-Mar-28 10:06 109 7 gusting 14 25.6
2015-Mar-28 09:51 076 9 gusting 13 25.6
2015-Mar-28 09:36 117 8 gusting 15 26.1
2015-Mar-28 09:21 103 6 gusting 17 26.1
2015-Mar-28 09:06 086 6 gusting 12 25.6
2015-Mar-28 08:51 100 9 gusting 13 26.1
2015-Mar-28 08:36 111 10 gusting 13 25.6
2015-Mar-28 08:21 086 6 gusting 13 25.6
2015-Mar-28 08:06 077 6 gusting 13 25.6
2015-Mar-28 07:51 117 5 gusting 12 25.6
2015-Mar-28 07:36 111 6 gusting 13 25.6
2015-Mar-28 07:21 077 11 gusting 20 25.6
2015-Mar-28 07:06 086 9 gusting 16 26.1
2015-Mar-28 06:51 106 6 gusting 12 26.1
2015-Mar-28 06:35 115 9 gusting 14 26.1
2015-Mar-28 06:20 075 8 gusting 14 26.1
2015-Mar-28 06:05 070 8 gusting 15 26.1
2015-Mar-28 05:50 096 9 gusting 16 26.1
2015-Mar-28 05:35 117 8 gusting 14 26.1
2015-Mar-28 05:20 081 6 gusting 13 26.1
2015-Mar-28 05:05 084 6 gusting 13 26.1
2015-Mar-28 04:50 072 6 gusting 11 26.1
2015-Mar-28 04:35 087 8 gusting 13 26.1
2015-Mar-28 04:20 093 6 gusting 13 26.1
2015-Mar-28 04:05 079 8 gusting 16 26.1
2015-Mar-28 03:50 107 6 gusting 13 26.7
2015-Mar-28 03:35 089 7 gusting 16 26.7
2015-Mar-28 03:20 088 11 gusting 15 26.7
2015-Mar-28 03:05 110 6 gusting 13 26.7
2015-Mar-28 02:50 110 11 gusting 14 26.7
2015-Mar-28 02:35 079 8 gusting 16 26.1
2015-Mar-28 02:20 049 9 gusting 14 26.7
2015-Mar-28 02:05 105 7 gusting 14 26.7
2015-Mar-28 01:50 088 9 gusting 13 26.7
2015-Mar-28 01:35 097 6 gusting 15 26.7
2015-Mar-28 01:20 104 6 gusting 13 26.7
2015-Mar-28 01:05 070 9 gusting 13 26.7
2015-Mar-28 00:50 077 10 gusting 18 26.7
2015-Mar-28 00:35 084 9 gusting 17 26.7
2015-Mar-28 00:20 094 9 gusting 18 26.7
2015-Mar-28 00:05 110 11 gusting 17 26.7
2015-Mar-27 23:50 077 10 gusting 18 26.7
2015-Mar-27 23:35 073 12 gusting 18 26.7
2015-Mar-27 23:20 072 9 gusting 17 26.7
2015-Mar-27 23:05 110 8 gusting 18 26.7
2015-Mar-27 22:50 042 9 gusting 16 27.2
2015-Mar-27 22:35 068 10 gusting 17 27.2
2015-Mar-27 22:20 066 10 gusting 19 27.8
2015-Mar-27 22:05 117 10 gusting 19 27.8
2015-Mar-27 21:50 064 13 gusting 19 27.8
2015-Mar-27 21:35 086 12 gusting 20 27.8
2015-Mar-27 21:20 117 10 gusting 20 27.8
2015-Mar-27 21:05 104 13 gusting 20 28.3
2015-Mar-27 20:50 111 8 gusting 17 28.3
2015-Mar-27 20:35 112 11 gusting 19 28.9
2015-Mar-27 20:20 101 15 gusting 22 28.3
2015-Mar-27 20:05 100 10 gusting 19 28.9
2015-Mar-27 19:50 103 12 gusting 18 28.9
2015-Mar-27 19:35 105 9 gusting 17 28.9
2015-Mar-27 19:20 084 10 gusting 19 28.9
2015-Mar-27 19:05 077 12 gusting 19 28.9
2015-Mar-27 18:50 064 9 gusting 19 28.9
2015-Mar-27 18:35 102 9 gusting 16 29.4
2015-Mar-27 18:20 094 9 gusting 16 29.4
2015-Mar-27 18:05 120 9 gusting 17 29.4
2015-Mar-27 17:50 115 12 gusting 25 28.3
2015-Mar-27 17:35 094 11 gusting 19 28.9
2015-Mar-27 17:20 117 9 gusting 22 28.9
2015-Mar-27 17:04 104 10 gusting 23 29.4
2015-Mar-27 16:49 053 8 gusting 17 30.0
2015-Mar-27 16:34 111 9 gusting 16 29.4
2015-Mar-27 16:19 107 11 gusting 22 28.9
2015-Mar-27 16:04 074 11 gusting 19 28.9
2015-Mar-27 15:49 105 9 gusting 18 28.9
2015-Mar-27 15:34 074 10 gusting 19 29.4
2015-Mar-27 15:19 094 11 gusting 19 28.9
2015-Mar-27 15:04 103 13 gusting 20 28.9
2015-Mar-27 14:49 117 11 gusting 23 28.9
2015-Mar-27 14:34 094 8 gusting 17 28.9
2015-Mar-27 14:19 101 13 gusting 19 28.3
2015-Mar-27 14:04 139 12 gusting 18 28.3
2015-Mar-27 13:49 110 10 gusting 18 28.3
2015-Mar-27 13:34 120 11 gusting 19 28.3
2015-Mar-27 13:19 063 10 gusting 21 27.8
2015-Mar-27 13:04 075 13 gusting 18 27.8
2015-Mar-27 12:49 112 8 gusting 19 27.8
2015-Mar-27 12:34 038 10 gusting 19 27.2
2015-Mar-27 12:19 113 8 gusting 16 27.2
2015-Mar-27 12:04 134 6 gusting 13 26.7
2015-Mar-27 11:49 098 9 gusting 15 26.7
2015-Mar-27 11:34 018 8 gusting 12 26.1
2015-Mar-27 11:19 117 7 gusting 13 26.1
2015-Mar-27 11:04 097 8 gusting 13 26.1
2015-Mar-27 10:49 117 6 gusting 13 26.1
2015-Mar-27 10:34 076 6 gusting 13 26.1
2015-Mar-27 10:19 093 4 gusting 13 26.1
2015-Mar-27 10:04 097 6 gusting 12 26.1
2015-Mar-27 09:49 108 7 gusting 13 26.1
2015-Mar-27 09:34 107 8 gusting 13 26.1
2015-Mar-27 09:19 048 6 gusting 13 26.1
2015-Mar-27 09:04 082 9 gusting 16 26.1
2015-Mar-27 08:49 105 7 gusting 14 26.1
2015-Mar-27 08:34 086 6 gusting 12 25.6
2015-Mar-27 08:19 054 9 gusting 15 25.6
2015-Mar-27 08:04 108 8 gusting 14 26.1
2015-Mar-27 07:48 077 5 gusting 13 26.1
2015-Mar-27 07:33 090 7 gusting 13 26.1
2015-Mar-27 07:18 098 7 gusting 15 26.1
2015-Mar-27 07:03 091 7 gusting 14 26.1
2015-Mar-27 06:48 087 8 gusting 14 26.1
2015-Mar-27 06:33 078 6 gusting 15 26.1
2015-Mar-27 06:18 076 6 gusting 13 26.1
2015-Mar-27 06:03 097 8 gusting 15 26.1
2015-Mar-27 05:48 136 8 gusting 13 26.1
2015-Mar-27 05:33 139 6 gusting 13 26.1
2015-Mar-27 05:18 106 6 gusting 15 26.1
2015-Mar-27 05:03 064 6 gusting 13 26.1
2015-Mar-27 04:48 123 6 gusting 13 26.1
2015-Mar-27 04:33 114 6 gusting 13 26.1
2015-Mar-27 04:18 089 7 gusting 14 26.1
2015-Mar-27 04:03 120 6 gusting 13 26.1
2015-Mar-27 03:48 081 6 gusting 13 26.1
2015-Mar-27 03:33 060 7 gusting 13 26.1
2015-Mar-27 03:18 077 6 gusting 15 26.1
2015-Mar-27 03:03 101 6 gusting 12 26.1
2015-Mar-27 02:48 064 7 gusting 13 26.1
2015-Mar-27 02:33 076 5 gusting 13 26.1
2015-Mar-27 02:18 066 5 gusting 12 26.1
2015-Mar-27 02:03 066 5 gusting 9 26.7
2015-Mar-27 01:48 129 7 gusting 13 26.1
2015-Mar-27 01:33 088 5 gusting 15 26.1
2015-Mar-27 01:18 072 6 gusting 11 26.1
2015-Mar-27 01:03 119 6 gusting 14 26.1
2015-Mar-27 00:48 080 6 gusting 11 26.7
2015-Mar-27 00:33 066 9 gusting 13 26.1
2015-Mar-27 00:18 086 7 gusting 13 26.7
2015-Mar-27 00:03 072 6 gusting 12 26.7
2015-Mar-26 23:48 063 6 gusting 13 26.7
2015-Mar-26 23:33 096 7 gusting 15 26.7
2015-Mar-26 23:18 108 9 gusting 14 26.7
2015-Mar-26 23:03 079 9 gusting 15 26.7
2015-Mar-26 22:48 033 7 gusting 15 26.7
2015-Mar-26 22:33 088 8 gusting 14 27.2
2015-Mar-26 22:18 064 8 gusting 14 27.2
2015-Mar-26 22:03 101 9 gusting 15 27.2
2015-Mar-26 21:48 101 8 gusting 16 27.8
2015-Mar-26 21:45 096 11 gusting 17 27.8
2015-Mar-26 18:33 096 10 gusting 17 28.3
2015-Mar-26 18:18 098 7 gusting 14 28.9
2015-Mar-26 18:03 115 11 gusting 18 29.4
2015-Mar-26 17:48 084 9 gusting 18 29.4
2015-Mar-26 17:33 127 13 gusting 15 29.4
2015-Mar-26 17:18 117 9 gusting 19 28.9
2015-Mar-26 16:48 109 8 gusting 16 29.4
2015-Mar-26 16:33 117 9 gusting 16 29.4
2015-Mar-26 16:18 098 7 gusting 16 29.4
2015-Mar-26 16:03 111 6 gusting 19 29.4
2015-Mar-26 15:48 097 7 gusting 14 29.4
2015-Mar-26 15:33 110 9 gusting 17 28.9
2015-Mar-26 15:17 077 9 gusting 15 29.4
2015-Mar-26 15:02 107 7 gusting 18 28.9
2015-Mar-26 14:47 228 10 gusting 19 28.9
2015-Mar-26 14:32 110 8 gusting 16 28.9
2015-Mar-26 14:17 092 7 gusting 14 28.9
2015-Mar-26 14:02 115 10 gusting 17 28.3